Terug naar catalogus

CZ-6A DEB

ActiefSSO
NORAD 54930·DEBRIS·🇨🇳 China

Gelanceerd Nov 11, 2022 vanaf Taiyuan Satellite Launch Center

Loading…

Volgende Passages (komende 24 uur)

TLE

VersSource: Space-Track

Epoch: Sep 13, 2026, 01:51 UTC

1 54930U 22151RT  26256.07754476  .00004323  00000-0  62820-3 0  9996
2 54930  98.4238 307.1331 0089133 294.3657  64.8266 14.73833720203572

Volg CZ-6A DEB in realtime met AllMySat

Download on the App Store